Location: Gälforsberget
(66.6500°N, 22.4167°E)
Time: 10:17:44
(UTC+00:00)

Cosmos 1140 Rocket - Pass Details

Date: 11 April 2026
Orbit: 740 x 761 km, 74.1° (Epoch: 18 May)

Event Time Altitude Azimuth Distance (km) Brightness Sun altitude
Rises 20:17:05 0° 316° (NW) 3,225 8.7 -11.0°
Reaches altitude 10° 20:19:28 10° 316° (NW) 2,294 7.5 -11.1°
Maximum altitude 20:24:41 90° 238° (WSW) 761 3.5 -11.4°
Enters shadow 20:28:54 16° 139° (SE) 1,908 4.9 -11.6°
